Home > Weather > Yokohama > Past weeks

Flag for Japan Weather for the Past 2 Weeks in Yokohama, Japan

Now
61 °F

Passing clouds.


Feels Like: 61 °F
Forecast: 60 / 74 °F
Wind: 5 mph from Southeast

Location: Tokyo International Airport

Current Time: May 3, 2016 at 5:32:08 AM

Latest Report: May 3, 2016 at 5:00 AM


Visibility: 4 mi

Pressure: 30.09 "Hg

Humidity: 94%

Dew Point: 59 °F

Location of YokohamaLocation

Historic Weather in Yokohama — Graph

°F

Yokohama Temperature Yesterday

Maximum temperature yesterday: 68 °F (at 3:30 PM)
Minimum temperature yesterday: 57 °F (at 2:30 AM)
Average temperature yesterday: 62 °F

High & Low Weather Summary for the Past Weeks

 TemperatureHumidityPressure
High75 °F (Apr 18, 11:00 AM)100% (Apr 21, 11:50 PM)30.30 "Hg (Apr 21, 11:50 PM)
Low52 °F (Apr 20, 4:30 AM)30% (Apr 29, 3:04 PM)29.33 "Hg (Apr 28, 5:00 PM)
Average62 °F73%29.89 "Hg
* Reported Apr 18 4:00 AM — May 3 4:30 AM, Yokohama, Weather by CustomWeather, © 2016

Note: Actual official high and low records may vary slightly from our data, if they occured in-between our weather recording intervals... More about our weather records

Advertising

Yokohama Weather History for the Previous 24 Hours

Scroll right to see more
 ConditionsComfort  
Time TempWeatherWind HumidityBarometerVisibility
4:30 AM
Tue, May 3
63 °FPassing clouds.3 mph94%30.12 "Hg5 mi
4:00 AM63 °FPartly cloudy.3 mph88%30.12 "Hg5 mi
3:30 AM63 °FPartly cloudy.6 mph94%30.12 "Hg6 mi
3:00 AM63 °FPassing clouds.3 mph94%30.12 "Hg6 mi
2:30 AM63 °FPassing clouds.3 mph94%30.12 "Hg5 mi
2:00 AM63 °FPassing clouds.3 mph94%30.12 "HgN/A
1:30 AM63 °FPartly cloudy.5 mph88%30.12 "HgN/A
1:00 AM64 °FPassing clouds.6 mph83%30.15 "HgN/A
12:30 AM63 °FPassing clouds.7 mph88%30.15 "HgN/A
12:00 AM63 °FPassing clouds.7 mph88%30.15 "HgN/A
11:30 PM
Mon, May 2
63 °FPassing clouds.6 mph88%30.15 "HgN/A
11:00 PM63 °FPassing clouds.7 mph94%30.15 "HgN/A
10:30 PM63 °FPassing clouds.8 mph94%30.18 "HgN/A
10:00 PM63 °FPassing clouds.10 mph88%30.18 "HgN/A
9:30 PM63 °FPassing clouds.12 mph88%30.18 "HgN/A
9:00 PM63 °FPassing clouds.10 mph88%30.18 "HgN/A
8:30 PM64 °FPassing clouds.10 mph88%30.18 "HgN/A
8:00 PM64 °FPassing clouds.12 mph83%30.15 "HgN/A
7:30 PM64 °FPartly cloudy.12 mph88%30.15 "HgN/A
7:00 PM64 °FPartly cloudy.12 mph88%30.12 "HgN/A
6:30 PM66 °FPartly cloudy.12 mph83%30.12 "HgN/A
6:00 PM66 °FPartly sunny.12 mph83%30.12 "HgN/A
5:30 PM66 °FPartly sunny.10 mph83%30.12 "HgN/A
5:00 PM66 °FPartly sunny.9 mph83%30.12 "HgN/A
4:30 PM68 °FPartly sunny.7 mph78%30.09 "HgN/A
4:00 PM68 °FPartly sunny.6 mph73%30.09 "HgN/A
3:30 PM68 °FPartly sunny.5 mph73%30.12 "HgN/A
2:00 PM66 °FPartly sunny.8 mph73%30.12 "HgN/A
1:30 PM66 °FBroken clouds.7 mph78%30.12 "HgN/A
1:00 PM66 °FBroken clouds.7 mph78%30.12 "HgN/A
12:30 PM64 °FBroken clouds.8 mph78%30.12 "HgN/A
11:30 AM63 °FBroken clouds.10 mph77%30.15 "HgN/A
11:00 AM63 °FBroken clouds.12 mph77%30.15 "HgN/A
10:30 AM63 °FBroken clouds.7 mph77%30.15 "HgN/A
10:00 AM61 °FPartly sunny.7 mph77%30.15 "HgN/A
9:30 AM61 °FPartly sunny.13 mph77%30.15 "HgN/A
9:00 AM59 °FPartly sunny.10 mph82%30.15 "Hg6 mi
8:30 AM61 °FBroken clouds.12 mph77%30.15 "Hg6 mi
8:00 AM61 °FPartly sunny.8 mph77%30.15 "Hg6 mi
7:30 AM59 °FPartly sunny.8 mph82%30.15 "Hg5 mi
7:00 AM59 °FBroken clouds.8 mph82%30.12 "Hg4 mi
6:30 AM59 °FPartly sunny.10 mph82%30.12 "Hg4 mi
6:00 AM59 °FPartly sunny.10 mph82%30.12 "Hg4 mi
5:30 AM57 °FFog.9 mph88%30.09 "Hg4 mi
5:00 AM57 °FPartly sunny.9 mph88%30.09 "Hg4 mi
Weather by CustomWeather, © 2016

See weather overviewHow to use our weather pages